User: anonymous   Login
Location: Songkhla
(7.2000°N, 100.6000°E)
Time: 19:07:02
(UTC+07:00)
Language:

JAISAT 1 - Orbit

View from above orbital plane
View from above orbital plane
View from above satellite
View from above satellite

Ground track
Ground track

The orbit data is extracted from the following two-line orbital elements,

1 44419U 19038F   22329.80715992  .00010166  00000-0  46770-3 0  9993
2 44419  97.6559 301.7074 0015922 298.0238  61.9386 15.20424365187548
Epoch (UTC): 25 November 2022 19:22:18
Eccentricity: 0.0015922
inclination: 97.6559°
perigee height: 493 km
apogee height: 515 km
right ascension of ascending node: 301.7074°
argument of perigee: 298.0238°
revolutions per day: 15.20424365
mean anomaly at epoch: 61.9386°
orbit number at epoch: 18754

The dashed part of the orbit path shows where the satellite is in the earth's shadow,  

DLR